Wind_Speed
8 8 8 8 8 8 9 10 9 11 12 12 13 13 13 14 14 14 14 15 15 14 15 15 15 15 15 15 15 16 16 15 15 15 15 16 16 15 15 14 14 13 13 14
9 9 9 9 9 9 9 10 11 12 13 13 12 13 13 13 14 14 14 14 14 14 14 15 16 16 16 16 15 15 15 16 15 15 16 15 15 15 14 14 13 13 13 13
9 9 8 8 9 10 10 10 11 11 12 12 12 13 13 13 14 14 14 14 14 15 15 15 16 16 16 16 16 15 15 16 16 16 16 16 15 15 14 13 13 13 12 12
10 9 9 10 10 10 10 10 10 10 11 11 11 13 14 14 14 14 14 14 15 15 15 16 16 16 16 16 16 16 16 16 16 16 16 16 15 15 15 14 13 13 13 13
11 10 10 11 10 10 10 9 10 10 10 11 11 13 15 14 15 15 14 15 15 15 15 15 15 16 16 16 16 16 16 16 16 16 16 16 15 15 14 14 13 13 13 14
11 11 11 11 10 9 9 9 9 10 11 11 11 13 15 15 16 16 16 16 16 16 16 16 16 16 16 16 17 17 16 16 16 16 16 16 15 14 14 14 14 14 14 14
11 11 11 11 10 10 9 9 9 9 10 11 13 15 17 17 18 17 17 17 17 17 16 16 17 17 17 17 17 16 16 17 16 16 16 16 15 15 14 14 14 14 15 15
12 12 12 12 12 11 11 11 10 10 11 12 15 17 18 18 19 19 19 17 17 17 18 17 17 17 17 17 17 17 17 17 17 16 16 16 16 15 14 14 15 15 16 16
13 14 14 13 14 13 13 12 12 12 12 13 15 18 20 19 19 19 19 19 19 18 19 18 18 17 17 18 18 17 18 18 18 17 17 17 16 15 15 16 16 16 16 16
14 15 15 14 14 14 14 14 14 13 14 14 15 18 20 19 20 20 20 20 20 20 19 20 19 19 19 19 19 19 19 18 18 18 18 17 17 17 17 17 17 18 17 17
15 16 16 16 15 15 15 15 15 16 16 16 16 19 20 20 21 21 21 21 21 21 21 21 20 19 19 19 19 19 19 19 19 18 18 19 18 18 18 18 18 18 18 18
16 17 17 17 16 17 17 17 17 17 17 18 19 21 21 22 22 22 22 22 22 22 21 21 22 21 20 19 19 19 19 19 19 19 20 20 19 19 19 19 19 19 18 18
17 17 17 17 17 17 18 18 18 19 19 19 20 22 21 23 24 24 23 23 23 22 22 22 22 21 20 20 20 19 19 19 19 19 20 20 20 20 20 19 19 20 19 19
19 19 19 18 18 19 20 19 19 19 20 20 20 22 21 23 24 24 24 24 23 23 22 22 21 21 21 20 20 20 20 19 19 19 19 20 20 19 19 19 19 19 20 19
20 20 20 20 20 21 22 21 21 21 21 22 21 22 22 24 24 24 24 24 24 23 23 22 21 21 21 21 20 20 20 20 19 19 19 19 19 19 19 20 20 20 20 20
21 21 21 21 21 22 22 22 22 21 22 22 23 23 23 25 26 25 24 24 24 23 23 23 22 22 22 22 22 21 21 21 20 20 20 19 19 20 20 20 20 21 21 21
22 22 22 22 22 23 21 21 22 22 22 23 23 23 23 24 25 26 25 25 24 24 24 24 24 23 22 23 23 22 22 22 21 20 20 20 20 20 21 21 21 21 21 22
22 22 23 23 23 24 21 21 22 22 23 23 24 24 24 25 25 25 25 25 25 24 24 24 25 24 23 23 23 23 23 23 22 21 21 21 21 21 22 21 22 22 22 22
23 23 24 23 24 25 22 22 23 23 24 24 24 25 24 25 25 25 25 25 24 23 24 24 24 25 24 24 24 23 23 23 22 22 22 23 23 23 22 22 22 22 22 22
23 24 25 25 25 25 24 23 24 24 24 24 24 25 25 26 26 25 25 25 24 24 24 24 25 25 25 24 24 24 23 23 23 23 23 23 23 23 23 23 24 24 23 23
24 25 25 26 27 27 25 25 25 25 25 25 25 25 26 26 26 26 26 26 25 25 25 25 24 25 25 24 24 24 24 24 24 24 24 24 24 24 24 24 24 24 24 24
26 26 26 26 27 27 26 26 26 27 27 26 26 25 25 26 26 26 26 26 26 25 25 25 24 24 24 23 24 24 24 24 24 24 24 24 24 24 24 25 25 25 24 24
26 27 28 28 28 28 28 28 27 27 27 27 27 27 27 27 27 27 27 27 27 26 26 26 25 25 23 22 23 23 24 24 24 23 24 24 25 25 25 25 25 24 25 25
26 27 28 29 29 28 27 28 27 27 28 28 28 28 29 29 29 28 29 29 28 27 27 26 25 24 23 23 23 23 24 24 23 23 23 24 24 25 25 25 25 25 26 26
27 28 28 28 29 29 28 28 28 28 29 29 29 29 29 29 29 29 29 29 29 28 27 26 26 25 24 23 23 23 24 24 24 24 24 25 25 26 25 25 25 25 26 26
28 28 29 28 29 31 30 30 28 29 30 30 29 29 29 29 29 29 29 29 28 28 27 27 27 26 25 24 24 24 24 25 25 25 26 26 26 26 25 25 24 25 25 25
Wind_Direction
264 265 267 271 275 279 284 284 284 289 291 291 292 293 295 294 291 291 290 288 284 283 280 278 277 276 276 275 275 277 279 279 279 279 281 283 285 285 283 281 279 279 282 284
262 266 269 270 273 277 278 282 284 285 292 294 293 294 296 297 296 296 292 289 289 286 282 279 278 278 278 278 278 279 281 280 280 280 279 283 284 282 281 278 276 279 281 286
262 266 267 271 271 272 273 278 284 286 291 294 297 296 294 295 297 295 294 292 290 286 282 279 279 278 278 279 280 281 281 281 282 283 283 284 284 282 281 279 278 279 281 286
264 264 264 266 267 270 273 280 284 288 290 294 300 301 299 301 299 298 296 295 294 290 284 278 278 277 277 278 280 281 281 282 284 283 283 283 282 279 278 278 278 279 282 285
262 261 262 265 268 270 275 281 282 283 286 292 297 301 300 303 303 302 301 298 296 292 287 282 280 279 279 280 281 283 282 282 283 282 282 282 283 279 277 276 277 278 282 285
263 264 263 265 269 272 273 275 279 285 291 295 297 298 297 302 303 303 302 297 294 292 288 286 285 282 282 282 283 284 283 284 284 283 283 280 281 278 277 275 277 279 282 284
264 265 264 265 265 268 270 275 283 292 299 298 295 292 294 300 303 302 300 296 294 292 288 287 287 284 282 282 283 282 282 283 284 283 284 280 280 279 274 274 276 279 281 281
266 265 265 267 267 267 270 275 281 281 283 288 290 289 294 298 299 299 298 296 293 290 288 286 285 285 282 282 282 281 281 282 283 283 283 282 281 277 276 275 277 280 282 284
261 264 265 268 270 270 271 270 276 279 281 282 285 289 292 296 297 296 294 294 293 290 287 286 285 285 283 282 280 279 281 281 281 282 279 278 279 277 277 277 278 281 283 284
260 265 267 267 268 268 269 273 275 276 278 278 280 285 288 296 297 295 293 294 294 292 289 286 284 284 282 282 281 279 279 279 279 279 278 278 277 277 277 278 278 280 281 283
260 264 266 268 270 271 271 272 274 277 280 280 279 280 288 292 293 293 293 293 294 291 288 284 282 281 280 281 281 280 279 278 277 277 277 278 276 277 278 278 278 279 280 281
260 263 265 269 271 273 275 277 277 277 278 277 278 281 288 291 292 292 292 290 290 290 288 286 281 282 280 281 280 279 280 279 277 276 276 277 275 275 275 276 278 278 279 279
262 262 266 269 270 270 273 276 276 277 277 278 279 282 288 290 292 293 293 290 288 287 286 285 283 281 280 280 279 277 279 279 278 277 277 276 275 274 274 275 277 278 277 276
263 262 263 266 271 272 274 276 275 276 278 280 280 282 286 289 292 293 292 289 287 285 284 283 281 279 279 279 278 276 278 278 278 278 277 275 273 273 273 275 278 278 277 275
262 263 263 263 267 269 273 277 278 279 280 283 283 281 285 287 290 292 291 289 286 285 284 283 280 278 277 278 279 278 276 277 277 276 276 276 273 272 274 276 277 279 277 276
262 263 264 264 267 269 271 276 278 278 280 282 283 282 284 287 289 291 291 288 286 283 283 281 279 277 277 277 278 279 278 276 277 274 272 273 274 275 276 277 277 277 277 278
262 263 265 268 269 271 274 277 278 278 279 281 282 284 286 287 289 289 290 289 286 283 281 279 278 276 276 276 275 275 276 274 274 272 270 271 274 276 276 277 278 278 277 277
262 264 267 270 271 273 278 278 278 280 280 282 282 284 287 289 291 290 290 290 288 285 281 279 278 278 276 276 276 275 274 273 270 269 270 272 273 274 276 277 278 278 278 277
262 264 267 270 272 275 277 277 279 280 281 284 284 286 287 289 290 290 290 290 291 288 283 280 278 278 276 275 274 273 273 272 270 270 271 272 273 274 275 275 277 278 277 278
262 265 268 270 272 273 277 279 280 281 282 284 285 286 287 289 291 291 291 291 290 289 286 282 280 280 276 274 273 272 271 271 271 271 271 272 274 274 274 275 276 278 277 277
262 265 268 269 271 274 276 278 280 282 285 286 286 286 287 289 291 292 292 293 292 291 288 284 283 282 278 274 272 271 272 271 271 272 272 273 275 275 274 274 274 276 276 277
265 266 268 270 272 273 274 276 277 280 282 284 285 285 287 288 289 291 292 292 291 290 288 285 282 281 279 275 272 271 271 271 271 272 272 272 275 276 276 275 275 275 276 277
267 267 267 269 272 273 274 276 278 279 280 283 284 284 286 287 289 290 291 291 290 289 288 285 282 282 280 275 273 272 273 272 271 272 272 273 275 276 276 276 275 275 276 277
268 269 268 269 272 273 274 275 276 278 280 283 285 285 284 286 288 289 289 290 289 287 287 284 283 281 279 276 274 272 272 272 273 273 274 276 277 278 278 277 275 275 275 277
268 268 270 270 272 273 274 276 275 276 279 282 285 286 286 285 287 288 288 288 287 285 284 283 281 278 278 278 275 273 272 271 272 274 276 277 279 279 278 278 277 276 276 277
267 269 270 272 273 273 274 275 276 276 278 281 284 284 285 286 287 289 289 288 287 284 282 281 279 278 277 276 276 274 273 273 273 275 277 278 279 278 277 277 277 277 278 278
Height
5863 5864 5864 5864 5865 5865 5865 5865 5865 5865 5864 5864 5863 5863 5863 5861 5861 5860 5860 5859 5859 5858 5858 5858 5858 5858 5858 5858 5858 5858 5858 5858 5857 5857 5857 5857 5857 5856 5856 5856 5856 5856 5855 5855
5862 5862 5863 5863 5863 5864 5863 5863 5863 5863 5862 5862 5861 5861 5861 5859 5859 5858 5857 5857 5856 5856 5855 5855 5855 5855 5855 5855 5855 5855 5854 5854 5854 5854 5854 5853 5853 5853 5853 5852 5852 5852 5852 5852
5860 5861 5861 5861 5861 5862 5862 5862 5862 5861 5860 5860 5859 5859 5858 5857 5856 5856 5855 5854 5853 5853 5852 5852 5851 5851 5851 5851 5851 5851 5851 5851 5850 5850 5850 5850 5850 5849 5849 5849 5849 5849 5849 5849
5858 5859 5859 5859 5859 5860 5860 5860 5859 5859 5858 5858 5858 5856 5856 5855 5854 5853 5852 5851 5850 5850 5849 5848 5848 5848 5848 5848 5848 5848 5848 5847 5847 5846 5846 5846 5846 5846 5846 5846 5846 5846 5847 5846
5856 5856 5857 5857 5857 5858 5858 5858 5858 5857 5856 5856 5856 5855 5854 5852 5851 5851 5850 5849 5847 5847 5846 5845 5844 5844 5844 5844 5844 5844 5844 5843 5843 5843 5843 5843 5842 5843 5843 5843 5843 5843 5843 5843
5854 5854 5854 5855 5855 5856 5856 5856 5855 5855 5854 5854 5854 5853 5851 5850 5849 5848 5847 5846 5844 5843 5842 5841 5841 5841 5841 5840 5840 5840 5840 5840 5839 5839 5839 5839 5839 5839 5839 5839 5840 5840 5840 5840
5851 5852 5852 5852 5853 5853 5854 5854 5853 5853 5852 5852 5852 5851 5850 5848 5846 5845 5844 5842 5841 5840 5838 5838 5837 5837 5837 5837 5836 5836 5836 5836 5835 5835 5835 5835 5835 5835 5836 5836 5836 5836 5837 5837
5848 5849 5850 5850 5851 5851 5851 5852 5852 5852 5851 5851 5850 5848 5847 5845 5844 5842 5840 5839 5838 5836 5834 5834 5834 5833 5833 5833 5832 5832 5832 5832 5832 5832 5831 5831 5831 5832 5832 5832 5832 5833 5833 5833
5846 5847 5847 5847 5848 5848 5848 5848 5849 5849 5848 5848 5847 5845 5843 5842 5841 5839 5837 5835 5834 5833 5831 5829 5829 5829 5829 5829 5828 5828 5828 5828 5828 5827 5828 5828 5828 5828 5828 5828 5828 5829 5829 5829
5843 5844 5844 5844 5845 5845 5846 5845 5845 5845 5844 5844 5844 5842 5840 5838 5837 5835 5833 5832 5830 5829 5827 5825 5824 5824 5824 5824 5824 5823 5823 5823 5823 5823 5823 5823 5824 5824 5824 5824 5825 5825 5825 5825
5840 5841 5841 5841 5841 5842 5842 5842 5842 5841 5841 5840 5840 5840 5836 5835 5833 5831 5829 5827 5825 5824 5823 5821 5819 5819 5819 5819 5819 5819 5819 5819 5819 5819 5819 5819 5819 5819 5820 5820 5820 5820 5820 5820
5836 5837 5837 5838 5838 5838 5838 5838 5838 5838 5837 5836 5835 5836 5832 5830 5828 5826 5824 5822 5820 5819 5817 5816 5815 5814 5814 5814 5814 5814 5814 5814 5814 5814 5814 5814 5815 5815 5815 5815 5815 5815 5815 5815
5832 5833 5833 5834 5835 5834 5834 5834 5833 5833 5832 5832 5831 5831 5828 5825 5823 5821 5819 5817 5815 5814 5813 5812 5810 5810 5810 5809 5809 5809 5809 5809 5809 5809 5809 5810 5810 5810 5810 5811 5811 5810 5810 5810
5828 5828 5829 5830 5829 5829 5829 5829 5829 5828 5827 5827 5826 5825 5823 5821 5818 5816 5814 5812 5810 5809 5808 5806 5805 5805 5805 5804 5804 5804 5804 5804 5804 5804 5804 5804 5805 5805 5805 5805 5805 5805 5805 5805
5823 5824 5824 5824 5824 5824 5824 5824 5823 5823 5822 5821 5821 5819 5817 5815 5813 5811 5809 5806 5805 5804 5802 5801 5799 5799 5799 5799 5798 5798 5798 5799 5799 5799 5799 5799 5799 5800 5800 5800 5800 5800 5800 5800
5817 5818 5818 5819 5819 5819 5819 5819 5818 5818 5817 5816 5814 5813 5812 5809 5807 5805 5803 5801 5799 5798 5797 5795 5794 5793 5793 5793 5793 5793 5793 5793 5793 5793 5794 5794 5794 5794 5795 5795 5795 5795 5795 5795
5812 5812 5813 5813 5813 5812 5813 5814 5813 5812 5811 5810 5808 5808 5805 5803 5801 5799 5797 5795 5793 5792 5791 5789 5788 5787 5787 5787 5787 5787 5787 5787 5787 5788 5788 5788 5788 5789 5789 5789 5789 5788 5789 5789
5806 5807 5807 5807 5807 5807 5810 5808 5807 5806 5805 5804 5802 5801 5799 5797 5795 5792 5791 5789 5787 5785 5784 5783 5782 5781 5781 5781 5781 5780 5781 5781 5781 5782 5782 5782 5782 5783 5783 5783 5783 5783 5783 5783
5800 5800 5801 5801 5800 5800 5802 5801 5800 5799 5799 5797 5796 5794 5793 5791 5788 5787 5784 5782 5780 5779 5777 5776 5775 5775 5774 5774 5774 5774 5774 5774 5775 5775 5776 5776 5776 5776 5776 5777 5777 5777 5777 5777
5794 5794 5795 5794 5794 5794 5796 5795 5793 5794 5792 5791 5789 5787 5786 5784 5782 5781 5778 5776 5774 5772 5770 5769 5768 5767 5767 5766 5766 5767 5767 5768 5768 5769 5769 5769 5769 5769 5770 5770 5770 5770 5770 5770
5787 5787 5788 5787 5786 5786 5788 5787 5787 5787 5786 5784 5782 5781 5779 5777 5775 5773 5771 5769 5767 5765 5764 5762 5761 5760 5759 5759 5759 5759 5760 5761 5761 5762 5762 5762 5762 5763 5763 5763 5763 5763 5763 5763
5780 5780 5781 5780 5780 5782 5780 5780 5779 5779 5778 5776 5775 5774 5772 5771 5768 5767 5765 5762 5761 5759 5757 5755 5754 5752 5752 5751 5752 5752 5753 5753 5754 5754 5755 5755 5755 5755 5755 5756 5756 5756 5756 5756
5773 5774 5773 5774 5775 5774 5773 5772 5772 5771 5770 5769 5768 5767 5766 5764 5762 5760 5758 5756 5754 5752 5750 5748 5747 5745 5744 5744 5745 5745 5746 5746 5747 5747 5748 5748 5748 5748 5748 5748 5748 5748 5748 5748
5766 5765 5765 5766 5766 5765 5765 5765 5764 5763 5763 5762 5760 5759 5758 5756 5755 5753 5751 5749 5747 5745 5743 5742 5740 5739 5738 5738 5738 5738 5739 5739 5740 5740 5741 5741 5741 5741 5741 5740 5740 5740 5740 5740
5758 5758 5757 5758 5758 5757 5758 5757 5757 5756 5755 5754 5753 5751 5750 5749 5747 5745 5743 5742 5740 5738 5736 5735 5733 5732 5732 5731 5731 5731 5732 5732 5732 5733 5733 5733 5733 5733 5733 5732 5732 5732 5732 5732
5750 5750 5750 5751 5751 5749 5750 5749 5748 5747 5747 5746 5745 5743 5742 5741 5739 5737 5735 5734 5732 5730 5729 5728 5726 5726 5725 5724 5724 5725 5725 5724 5725 5725 5725 5725 5725 5725 5724 5724 5724 5724 5724 5723